Location: Champseau
(45.8333°N, 1.7667°E)
Time: 16:43:17
(UTC+00:00)

FALCON 9 DEB - Pass Details

Date: 18 April 2021
Orbit: 422 x 435 km, 53.0° (Epoch: 12 May)

Event Time Altitude Azimuth Distance (km) Brightness Sun altitude
Rises 20:43:01 0° 247° (WSW) 2,380 7.2 -19.0°
Reaches altitude 10° 20:45:07 10° 250° (WSW) 1,520 6.2 -19.3°
Maximum altitude 20:48:30 62° 332° (NNW) 486 3.5 -19.7°
Enters shadow 20:50:10 27° 46° (NE) 858 4.5 -19.9°
